This is the latest recevied weather packets stored in our database for station/object W8CWV-13. If no packets are shown the sender has not sent any weather packets the latest 10 day(s).
| Time | Temp. | Humidity | Pressure | Rain* | Wind** | Luminosity | Snow |
|---|---|---|---|---|---|---|---|
| 1778252895 | 23.33° C | 100% | 1022.3 hPa | - | - | - | - |
| 1778252327 | 23.33° C | 100% | 1022.5 hPa | - | - | - | - |
| 1778251744 | 23.33° C | 100% | 1022.7 hPa | - | - | - | - |
| 1778251174 | 23.33° C | 100% | 1022.8 hPa | - | - | - | - |
| 1778250601 | 22.22° C | 100% | 1022.8 hPa | - | - | - | - |
| 1778250028 | 23.33° C | 100% | 1022.7 hPa | - | - | - | - |
| 1778249453 | 21.67° C | 100% | 1023 hPa | - | - | - | - |
| 1778248879 | 21.67° C | 100% | 1023 hPa | - | - | - | - |
| 1778248307 | 22.22° C | 100% | 1023 hPa | - | - | - | - |
| 1778247729 | 20.56° C | 100% | 1023.2 hPa | - | - | - | - |
| 1778247153 | 20° C | 100% | 1023 hPa | - | - | - | - |
| 1778246579 | 18.89° C | 100% | 1022.8 hPa | - | - | - | - |
| 1778246007 | 17.78° C | 100% | 1022.9 hPa | - | - | - | - |
| 1778245429 | 18.89° C | 100% | 1022.3 hPa | - | - | - | - |
| 1778244856 | 19.44° C | 100% | 1021.9 hPa | - | - | - | - |
| 1778244278 | 17.78° C | 100% | 1022.3 hPa | - | - | - | - |
| 1778243706 | 17.22° C | 100% | 1022.6 hPa | - | - | - | - |
| 1778243128 | 15.56° C | 100% | 1023.8 hPa | - | - | - | - |
| 1778242549 | 11.67° C | 100% | 1024.1 hPa | - | - | - | - |
| 1778241972 | 10° C | 100% | 1024 hPa | - | - | - | - |
| 1778241400 | 8.89° C | 100% | 1023.6 hPa | - | - | - | - |
| 1778240827 | 8.33° C | 100% | 1023.5 hPa | - | - | - | - |
| 1778240254 | 7.78° C | 100% | 1022.7 hPa | - | - | - | - |
| 1778239676 | 6.11° C | 100% | 1022.5 hPa | - | - | - | - |
| 1778239103 | 5.56° C | 100% | 1022.6 hPa | - | - | - | - |
* Rain since midnight (hover to see other rain measurements)
** Current wind speed in m/s (hover to see current wind gust speed)